MyTimes logo

TIMES

Webb Imagery

28/01/2006
Cowes Classic
500m Swim / 4.0km Run - Local Residents

(Click on competitor name to view personalised results)

Name
Race #
Category
Team Name
Time
(h:mm:ss)
Avg Speed
km/hr
OAll
Place
Cat
Place
EVANS Brad#68Local Senior Male0:24:33 11 11
ROWE Mark#128Local Senior Male0:24:38 11 22
UHLICH Rhys#733Local Team0:25:27 10.6 31
FLEISNER Rob#263Local 40-49 Male0:25:51 10.4 41
PLANT Luke#724Local Team0:25:56 10.4 52
MC HENRY David#730Local Team0:26:07 10.3 63
HANLEY Philip#281Local 50+ Male0:26:16 10.3 71
ROLLAND Thierry#268Local 40-49 Male0:26:18 10.3 82
HANLEY Tim#134Local Senior Male0:26:40 10.1 93
YUSKO Bill#251Local 50+ Male0:26:50 10.1 102
GOWAN Michael#716Local Team0:27:15 9.9 114
CORBETT James#284Local 40-49 Male0:27:26 9.8 123
HUTCHISON Warwick#126Local Senior Male0:27:28 9.8 134
KERR Lewis#274Local Junior Male0:27:35 9.8 141
WILKINS Darren#133Local Senior Male0:27:46 9.7 155
WILKINS Shaun#122Local Senior Male0:27:59 9.6 166
BUTT CHLOE#210Local Junior Female0:27:59 9.6 171
CARIAS Joe#736Local Team0:28:06 9.6 185
STUBBS Gavin#726Local Team0:28:06 9.6 196
STEWART Alastair#278Local Junior Male0:28:42 9.4 202
JEMMETT CHRISTIANN#201Local 40-49 Female0:28:45 9.4 211
CROWE Jessica#703Local Team0:28:52 9.4 227
MC CARTNEY Danielle#754Local Team0:28:57 9.3 238
HENDERSON Chloe#750Local Team0:29:05 9.3 249
ALDERSON Allan#272Local 50+ Male0:29:07 9.3 253
MARSHALL Luke#108Local Senior Male0:29:15 9.2 267
HALL Kerri#740Local Team0:29:35 9.1 2710
MARTIN Brian#275Local 40-49 Male0:29:49 9.1 284
JONES Cam#90Local Senior Male0:30:09 9 298
WALKER Anna#729Local Team0:30:27 8.9 3011
COX Bill#728Local Team0:30:44 8.8 3112
RIELLY Debbie#116Local Senior Female0:31:22 8.6 321
EVANS Bree#88Local Senior Female0:31:27 8.6 332
THOMPSON David#62Local Senior Male0:31:32 8.6 349
ABLETT Zachary#77Local Senior Male0:31:38 8.5 3510
O'DONOHUE Mark#737Local Team0:31:43 8.5 3613
O'KEEFE Louise#112Local Senior Female0:31:53 8.5 373
PETRUCCI Gina#61Local Senior Female0:31:58 8.4 384
CHISHOLM Andy#120Local Senior Male0:32:08 8.4 3911
MANNING Simon#249Local 40-49 Male0:32:44 8.2 405
JOHNSTON Brian#742Local Team0:33:01 8.2 4114
DAVIE Jasmine#254Local Junior Female0:33:33 8 422
DAVIE Angela#255Local 40-49 Female0:33:34 8 432
MANNING John#127Local Senior Male0:33:35 8 4412
SPENCER Alyn#25Local Senior Female0:33:41 8 455
BLUNDELL Adam#89Local Senior Male0:33:47 8 4613
WEIR Warren#755Local Team0:33:54 8 4715
CARTER DEAN#231Local 50+ Male0:34:18 7.9 484
NOLAN Simon#115Local Senior Male0:34:25 7.8 4914
O'SULLIVAN JANINE#13Local Senior Female0:34:32 7.8 506
COMMERFORD BIANCA#16Local Senior Female0:35:19 7.6 517
EVANS Kym#67Local Senior Female0:35:49 7.5 528
JACOBS Suzie#701Local Team0:37:28 7.2 5316
TAMBURG Alysia#121Local Senior Female0:37:30 7.2 549
GORSUCH Scott#734Local Team0:37:31 7.2 5517
THOMPSON Libby#63Local Senior Female0:37:39 7.2 5610
DALLINGER Brian#265Local 50+ Male0:38:15 7.1 575
STEWART Scott#280Local 50+ Male0:38:17 7.1 586
MORGAN Sally#731Local Senior Female0:38:18 7 5911
O'SULLIVAN Travis#57Local Senior Male0:38:44 7 6015
MCKAY Leah#29Local Senior Female0:38:51 6.9 6112
KENT Chloe#277Local Junior Female0:39:00 6.9 623
CAMILLE Dauen#279Local Junior Male0:41:57 6.4 633
REEK George#266Local 50+ Male0:43:11 6.3 647